Location: Baumgarten
(49.0970°N, 12.7493°E)
Time: 02:12:56
(UTC+00:00)

Cosmos 2322 - Pass Details

Date: 05 July 2020
Orbit: 841 x 854 km, 71.0° (Epoch: 04 August)

Event Time Altitude Azimuth Distance (km) Brightness Sun altitude
Rises 20:18:07 0° 193° (SSW) 3,410 6.5 -8.3°
Reaches altitude 10° 20:20:35 10° 189° (S) 2,478 5.8 -8.5°
Maximum altitude 20:26:09 58° 112° (ESE) 992 3.8 -9.1°
Drops below altitude 10° 20:31:46 10° 35° (NE) 2,494 6.4 -9.7°
Sets 20:34:15 0° 31° (NNE) 3,433 7.2 -9.9°
